CAPE
30 51 49 78 69 45 27 2 4 1 0 0 0 0 0 0 0 0 0 0 0 0 0 0 0 0 0 0 0 0 0 0 0 0 0 0 0 0 0 0 0 0 0
0 1 1 3 42 49 46 31 23 23 1 0 0 0 0 0 0 0 0 0 0 0 0 0 0 0 0 0 0 0 0 0 0 0 0 0 0 0 0 0 0 0 0
0 1 2 1 0 1 1 1 1 1 19 8 0 0 0 0 0 0 0 0 0 0 0 0 0 0 0 0 0 0 0 0 0 0 0 0 0 0 0 0 0 0 0
0 1 1 1 2 4 3 2 1 5 4 2 1 1 1 0 0 1 0 0 0 0 0 0 0 0 0 0 0 0 0 0 0 0 0 0 0 0 0 0 0 0 0
4 1 1 1 0 1 2 4 1 1 2 4 2 2 2 1 0 1 0 0 1 2 0 0 0 0 0 0 0 0 0 0 0 0 0 1 0 0 0 0 0 0 0
0 0 1 0 0 2 0 1 0 0 0 0 1 1 1 3 0 0 0 0 0 0 0 0 0 0 0 1 1 1 0 0 0 0 0 0 0 0 0 0 0 0 0
0 0 0 0 0 0 0 0 0 0 0 0 0 0 0 1 2 1 0 0 0 0 0 0 0 0 1 0 0 0 1 0 0 0 0 0 0 0 0 0 0 0 0
0 0 0 0 0 0 0 0 1 1 1 0 1 1 1 1 3 3 0 0 0 0 0 0 0 0 0 0 0 0 0 0 0 0 0 0 0 0 0 0 0 0 0
0 0 0 0 0 0 0 0 0 0 0 0 0 0 0 1 4 4 0 0 0 0 0 0 0 0 0 0 0 0 0 0 0 0 0 0 0 0 0 0 0 0 0
0 0 0 0 0 0 0 0 0 0 0 0 0 0 0 0 2 1 0 0 0 0 0 0 0 0 0 0 0 0 0 0 0 0 1 0 0 0 0 0 0 0 0
0 0 0 0 0 0 0 0 0 0 0 0 0 0 0 0 0 1 3 0 0 0 0 0 0 0 1 1 3 0 0 0 0 0 0 0 0 0 0 0 0 0 0
0 0 0 0 0 0 0 0 0 0 0 0 0 0 0 0 1 2 3 5 3 0 0 0 0 1 2 2 1 1 2 0 0 0 0 0 0 0 0 0 0 0 0
0 0 0 0 0 0 0 0 1 0 1 1 1 0 0 0 0 5 2 8 3 0 0 0 0 2 2 0 0 1 0 0 0 0 0 0 0 0 0 0 0 0 0
0 0 0 0 0 0 0 0 1 1 1 2 0 0 0 0 1 1 1 2 0 0 0 0 0 0 0 1 0 0 0 0 0 0 0 0 0 0 0 0 0 0 0
0 0 0 0 0 0 0 0 1 1 0 2 2 2 1 1 2 3 2 2 1 0 0 0 0 0 0 0 0 0 0 0 0 0 0 0 0 0 0 0 0 0 0
0 0 0 0 0 0 0 0 0 1 2 2 5 3 1 4 5 4 1 2 1 0 0 0 0 1 0 0 0 0 0 0 0 0 0 0 0 0 0 0 0 0 0
0 0 0 0 0 0 0 0 0 0 0 0 2 3 4 4 5 2 0 0 1 0 0 0 0 0 0 0 0 0 0 0 0 0 0 0 0 0 0 0 0 0 0
0 0 0 0 0 0 0 0 0 0 0 0 0 0 0 1 1 1 0 0 0 0 0 0 0 0 0 0 0 0 0 0 0 0 0 0 0 0 0 0 0 0 0
0 0 0 0 0 0 0 0 0 0 0 0 0 0 0 0 0 0 0 0 0 0 0 0 0 0 0 0 0 0 0 0 0 0 0 0 0 0 0 0 0 0 0
0 0 0 0 0 0 0 0 0 0 0 0 0 0 0 0 0 0 0 0 0 0 0 0 0 0 0 0 0 0 0 0 0 0 0 0 0 0 0 0 0 0 0
0 0 0 0 0 0 0 0 0 0 0 0 0 0 2 0 0 0 0 0 0 0 0 0 0 0 0 0 0 0 0 0 0 0 0 0 0 0 0 0 0 0 0
0 0 0 0 0 0 0 0 0 0 0 0 0 0 0 0 0 0 0 0 0 0 0 0 0 0 0 0 0 0 0 0 0 0 0 0 0 0 0 0 0 0 0
0 0 0 0 0 0 0 0 0 0 0 0 0 0 0 0 0 0 0 0 0 0 0 0 0 0 0 0 0 0 0 0 0 0 0 0 0 0 0 0 0 0 0
0 0 0 0 0 0 0 0 0 0 0 0 0 0 0 0 0 0 0 0 0 0 0 0 0 0 0 0 0 0 0 0 0 0 0 0 0 0 0 0 0 0 0
0 0 0 0 0 0 0 0 0 0 0 0 0 0 0 0 0 0 0 0 0 0 0 0 0 0 0 0 0 0 0 0 0 0 0 0 0 0 0 0 0 0 0
0 0 0 0 0 0 0 0 0 0 0 0 0 0 0 0 0 0 0 0 0 0 0 0 0 0 0 0 0 0 0 0 0 0 0 0 0 0 0 0 0 0 0
CIN
-68 -47 -58 -29 -41 -41 -36 -56 -67 -32 -0 -0 -0 -0 -0 -0 -0 -0 -0 -0 -0 -0 -0 -0 -0 -0 -0 -0 -0 -0 -0 -0 -0 -0 -0 -0 -0 -0 -0 -0 -0 -0 -0
-0 -5 -3 -2 -23 -15 -7 -18 -32 -31 -73 -0 -0 -0 -0 -0 -2 -0 -0 -0 -0 -0 -0 -0 -0 -0 -0 -0 -0 -0 -0 -0 -0 -0 -0 -0 -0 -0 -0 -0 -0 -0 -0
-0 -0 -0 -0 -0 -0 -0 -0 -0 -51 -28 -26 -0 -0 -0 -5 -0 -49 -89 -0 -0 -1 -0 -0 -0 -0 -0 -0 -0 -0 -0 -0 -0 -0 -0 -0 -0 -0 -0 -0 -0 -0 -0
-0 -0 -0 -0 -0 -0 -0 -0 -0 -0 -0 -0 -0 -0 -0 -0 -0 -0 -0 -0 -0 -0 -0 -0 -0 -0 -0 -0 -0 -0 -0 -0 -0 -0 -0 -0 -0 -0 -0 -0 -0 -0 -0
-0 -0 -0 -0 -0 -0 -0 -0 -0 -0 -0 -0 -0 -0 -0 -0 -0 -0 -0 -0 -0 -0 -0 -0 -0 -0 -0 -0 -0 -0 -0 -0 -0 -0 -0 -0 -0 -0 -0 -0 -0 -0 -0
-0 -0 -0 -0 -0 -0 -0 -0 -0 -0 -0 -0 -0 -0 -0 -0 -0 -0 -0 -0 -0 -0 -0 -0 -0 -0 -0 -0 -0 -0 -0 -0 -0 -0 -0 -0 -0 -0 -0 -0 -0 -0 -0
-0 -0 -0 -0 -0 -0 -0 -0 -0 -0 -0 -0 -0 -0 -0 -0 -0 -0 -0 -0 -0 -0 -0 -0 -0 -0 -0 -0 -0 -0 -0 -0 -0 -0 -0 -0 -0 -0 -0 -0 -0 -0 -0
-0 -0 -0 -0 -0 -0 -0 -0 -0 -0 -0 -0 -0 -0 -0 -0 -0 -0 -0 -0 -0 -0 -0 -0 -0 -0 -0 -0 -0 -0 -0 -0 -0 -0 -0 -0 -0 -0 -0 -0 -0 -0 -0
-0 -0 -0 -0 -0 -0 -0 -0 -0 -0 -0 -0 -0 -0 -0 -0 -0 -0 -0 -0 -0 -0 -0 -0 -0 -0 -0 -0 -0 -0 -0 -0 -0 -0 -0 -0 -0 -0 -0 -0 -0 -0 -0
-0 -0 -0 -0 -0 -0 -0 -0 -0 -0 -0 -0 -0 -0 -0 -0 -0 -0 -0 -0 -0 -0 -0 -0 -0 -0 -0 -0 -0 -0 -0 -0 -0 -0 -0 -0 -0 -0 -0 -0 -0 -0 -0
-0 -0 -0 -0 -0 -0 -0 -0 -0 -0 -0 -0 -0 -0 -0 -0 -0 -0 -0 -0 -0 -0 -0 -0 -0 -0 -0 -0 -0 -0 -0 -0 -0 -0 -0 -0 -0 -0 -0 -0 -0 -0 -0
-0 -0 -0 -0 -0 -0 -1 -1 -1 -0 -0 -0 -0 -0 -0 -0 -0 -0 -0 -0 -0 -0 -0 -0 -0 -0 -0 -0 -0 -0 -0 -0 -0 -0 -0 -0 -0 -0 -0 -0 -0 -0 -0
-0 -0 -0 -0 -0 -0 -0 -0 -0 -0 -0 -0 -0 -0 -0 -0 -0 -0 -0 -0 -0 -0 -0 -0 -0 -0 -0 -0 -0 -0 -0 -0 -0 -0 -0 -0 -0 -0 -0 -0 -0 -0 -0
-0 -0 -0 -0 -0 -0 -0 -1 -0 -0 -0 -0 -0 -0 -0 -0 -0 -0 -0 -0 -0 -0 -0 -0 -0 -0 -0 -0 -0 -0 -0 -0 -0 -0 -0 -0 -0 -0 -0 -0 -0 -0 -0
-0 -0 -0 -0 -0 -0 -0 -0 -0 -0 -0 -0 -0 -0 -0 -0 -0 -0 -0 -0 -0 -0 -0 -0 -0 -0 -0 -0 -0 -0 -0 -0 -0 -0 -0 -0 -0 -0 -0 -0 -0 -0 -0
-0 -0 -0 -0 -0 -0 -0 -0 -0 -0 -0 -0 -0 -0 -0 -0 -0 -0 -0 -0 -0 -0 -0 -0 -0 -0 -0 -0 -0 -0 -0 -0 -0 -0 -0 -0 -0 -0 -0 -0 -0 -0 -0
-0 -0 -0 -0 -0 -0 -0 -0 -0 -0 -0 -0 -0 -0 -0 -0 -0 -0 -0 -0 -0 -0 -0 -0 -0 -0 -0 -0 -0 -0 -0 -0 -0 -0 -0 -0 -0 -0 -0 -0 -0 -0 -0
-0 -0 -0 -0 -0 -0 -0 -0 -0 -0 -0 -0 -0 -0 -0 -0 -0 -0 -0 -0 -0 -0 -0 -0 -0 -0 -0 -0 -0 -0 -0 -0 -0 -0 -0 -0 -0 -0 -0 -0 -0 -0 -0
-0 -0 -0 -0 -0 -0 -0 -0 -0 -0 -0 -0 -0 -0 -0 -0 -0 -0 -0 -0 -0 -0 -0 -0 -0 -0 -0 -0 -0 -0 -0 -0 -0 -0 -0 -0 -0 -0 -0 -0 -0 -0 -0
-0 -0 -0 -0 -0 -0 -0 -0 -0 -0 -0 -0 -0 -0 -0 -0 -0 -0 -0 -0 -0 -0 -0 -0 -0 -0 -0 -0 -0 -0 -0 -0 -0 -0 -0 -0 -0 -0 -0 -0 -0 -0 -0
-0 -0 -0 -0 -0 -0 -0 -0 -0 -0 -0 -0 -0 -0 -0 -0 -0 -0 -0 -0 -0 -0 -0 -0 -0 -0 -0 -0 -0 -0 -0 -0 -0 -0 -0 -0 -0 -0 -0 -0 -0 -0 -0
-0 -0 -0 -0 -0 -0 -0 -0 -0 -0 -0 -0 -0 -0 -0 -0 -0 -0 -0 -0 -0 -0 -0 -0 -0 -0 -0 -0 -0 -0 -0 -0 -0 -0 -0 -0 -0 -0 -0 -0 -0 -0 -0
-0 -0 -0 -0 -0 -0 -0 -0 -0 -0 -0 -0 -0 -0 -0 -0 -0 -0 -0 -0 -0 -0 -0 -0 -0 -0 -0 -0 -0 -0 -0 -0 -0 -0 -0 -0 -0 -0 -0 -0 -0 -0 -0
-0 -0 -0 -0 -0 -0 -0 -0 -0 -0 -0 -0 -0 -0 -0 -0 -0 -0 -0 -0 -0 -0 -0 -0 -0 -0 -0 -0 -0 -0 -0 -0 -0 -0 -0 -0 -0 -0 -0 -0 -0 -0 -0
-0 -0 -0 -0 -0 -0 -0 -0 -0 -0 -0 -0 -0 -0 -0 -0 -0 -0 -0 -0 -0 -0 -0 -0 -0 -0 -0 -0 -0 -0 -0 -0 -0 -0 -0 -0 -0 -0 -0 -0 -0 -0 -0
-0 -0 -0 -0 -0 -0 -0 -0 -0 -0 -0 -0 -0 -0 -0 -0 -0 -0 -0 -0 -0 -0 -0 -0 -0 -0 -0 -0 -0 -0 -0 -0 -0 -0 -0 -0 -0 -0 -0 -0 -0 -0 -0
Wind_Speed
9 12 12 11 12 11 11 12 13 11 12 13 12 13 14 15 16 16 17 18 18 17 16 16 18 16 11 11 10 11 12 12 15 12 5 8 11 13 13 15 13 15 13
9 3 3 4 5 10 10 11 11 13 11 12 12 13 14 14 16 16 17 17 19 18 18 17 18 13 16 15 12 15 15 15 13 19 9 6 12 16 14 17 13 10 10
11 11 11 11 8 9 8 11 9 5 10 10 12 14 14 15 15 16 18 18 18 18 17 19 19 18 18 15 16 15 14 13 15 14 15 6 9 6 8 7 8 8 7
13 15 15 13 10 9 8 10 11 9 10 9 10 9 6 7 7 9 11 16 18 17 18 19 19 18 20 19 17 18 16 14 14 14 13 5 4 4 9 11 9 7 10
14 15 14 12 11 10 12 10 9 11 10 9 9 9 11 11 9 10 9 9 10 12 14 15 16 18 21 21 14 16 16 14 12 12 11 4 6 6 15 9 9 9 8
13 15 12 13 11 10 10 9 10 10 11 10 10 11 8 7 13 13 9 7 7 6 7 9 10 11 11 12 14 18 14 15 16 12 13 10 12 10 10 10 10 12 8
14 13 12 11 11 11 12 10 10 10 8 9 9 9 8 8 14 15 16 5 5 6 6 6 6 5 6 9 11 10 11 13 11 7 10 9 8 11 13 13 11 15 11
11 12 13 12 11 8 9 10 11 10 11 10 9 10 9 8 20 19 17 8 7 6 7 7 5 8 6 6 8 9 9 9 8 8 11 11 12 14 17 16 14 8 7
14 12 12 10 11 10 12 11 9 10 11 11 9 11 10 10 21 21 17 8 7 8 5 6 7 7 10 13 8 9 9 10 4 11 12 12 15 22 17 10 9 13 4
9 9 8 8 9 9 10 11 10 9 9 7 8 10 13 12 21 23 19 8 9 9 9 6 8 10 14 14 8 8 10 8 2 2 2 5 12 17 24 17 15 15 8
8 8 9 10 9 10 11 10 10 10 9 10 11 9 11 13 15 24 24 9 8 8 7 7 6 13 15 16 15 7 9 3 5 1 2 2 4 8 9 8 12 12 11
7 7 9 9 8 7 8 7 7 8 8 10 10 9 8 10 17 20 25 21 15 6 8 7 8 17 18 16 11 10 10 3 1 2 2 2 4 5 5 6 8 7 4
7 8 8 7 7 6 8 9 8 9 8 8 8 8 8 9 10 23 23 23 15 8 6 11 15 14 14 9 11 8 2 1 2 1 1 2 2 5 9 8 11 15 14
5 6 5 9 7 7 5 6 7 8 8 8 9 9 8 9 10 11 11 10 14 11 13 9 10 10 9 8 5 6 3 3 2 2 2 4 4 4 6 7 8 9 11
4 5 6 5 6 5 5 6 6 7 8 6 6 7 9 10 12 19 15 11 11 12 10 7 6 5 5 5 4 4 3 3 2 3 4 4 4 6 6 6 7 4 7
3 4 5 4 4 4 4 3 10 9 14 16 16 12 6 15 21 21 19 21 24 20 7 7 9 9 7 5 4 4 4 4 3 2 3 4 5 5 6 6 7 8 10
3 3 4 5 3 5 6 5 5 6 7 11 15 17 17 17 20 22 18 15 22 15 8 8 8 9 9 7 4 4 3 2 3 3 4 5 5 6 7 7 7 8 8
1 2 4 3 2 2 2 4 3 4 6 6 9 16 18 17 19 22 21 11 11 12 7 7 8 9 8 7 7 6 4 4 4 4 5 6 5 7 7 7 7 8 9
2 0 2 3 3 4 3 2 2 3 2 2 4 7 11 14 14 16 17 7 5 6 7 8 7 7 8 8 6 6 7 6 5 5 5 5 5 5 7 7 8 11 11
3 4 3 2 2 4 2 2 3 3 3 3 3 3 5 6 7 8 6 5 5 5 5 6 6 7 7 7 6 5 6 7 7 6 6 7 6 7 8 9 8 9 8
3 2 2 3 3 1 1 2 2 2 2 3 2 4 11 3 4 4 5 6 6 6 5 5 7 6 6 7 6 6 6 6 7 7 6 6 7 7 7 8 8 9 8
2 1 2 2 2 1 1 1 2 2 1 2 3 4 9 3 4 4 4 4 4 4 4 4 4 5 6 6 6 6 7 6 7 6 7 7 7 7 7 7 7 7 8
3 2 1 1 0 1 1 1 1 2 2 1 1 2 3 2 3 4 4 4 4 5 5 3 4 5 6 6 7 6 6 6 5 5 7 6 6 6 5 6 6 6 6
3 3 4 3 2 1 1 2 2 2 2 1 0 1 1 2 3 4 4 4 4 4 4 4 3 6 5 5 5 6 6 5 5 6 6 6 7 7 6 6 6 7 6
4 4 4 3 3 4 2 2 3 2 3 3 3 2 1 1 1 2 4 4 3 4 5 6 4 4 6 7 6 7 7 8 7 7 6 8 9 8 6 6 5 5 5
4 4 4 3 3 3 4 4 4 3 4 3 3 3 3 2 2 2 3 3 3 3 5 4 5 5 6 4 4 5 7 9 7 8 5 5 6 5 5 6 7 4 5
Wind_Direction
243 212 210 211 214 215 219 216 216 218 213 215 213 219 224 220 221 216 225 233 230 227 225 223 227 226 225 228 229 232 233 233 246 251 208 193 193 197 197 203 186 184 200
4 93 80 11 232 211 216 223 220 224 217 214 214 220 222 223 232 226 227 227 230 230 227 224 224 223 224 224 225 228 231 231 234 245 213 202 205 208 202 187 184 185 176
46 51 55 49 34 39 48 51 19 318 227 217 219 222 224 226 232 230 234 234 233 235 234 230 228 219 226 222 223 227 227 229 229 234 242 193 205 183 181 182 177 158 175
45 51 47 36 33 35 34 47 54 26 26 22 37 26 20 276 273 284 258 240 241 240 239 236 232 225 226 227 228 229 231 231 228 235 236 187 181 167 179 171 175 182 166
36 46 38 32 27 23 42 32 40 45 33 32 4 46 41 46 36 5 351 355 356 308 278 254 241 235 228 229 229 231 230 230 230 231 236 165 176 158 188 181 185 167 170
35 41 25 30 25 9 33 29 38 35 30 42 6 49 22 42 14 5 5 341 350 350 342 329 330 338 327 299 277 272 256 231 232 232 235 226 206 195 178 180 170 164 179
35 33 28 26 21 10 25 10 34 31 29 39 36 21 30 32 7 7 1 332 344 327 332 312 326 309 308 308 300 289 269 258 248 255 251 224 193 188 173 174 184 193 182
28 30 33 14 26 6 21 23 22 21 23 21 20 18 15 11 10 4 358 351 333 327 318 321 302 297 304 297 285 285 276 265 253 250 236 230 204 182 182 184 175 138 88
23 19 20 5 20 16 32 24 23 28 26 23 22 19 11 12 10 3 1 348 341 333 317 313 316 313 308 305 287 282 280 271 282 272 263 244 193 177 172 143 148 156 127
9 12 18 19 33 24 29 31 27 28 25 12 14 19 17 12 8 4 359 344 337 341 330 315 298 312 314 311 298 285 285 297 269 284 224 184 171 176 176 175 165 177 148
355 8 24 23 28 31 32 30 29 24 16 18 15 8 13 12 0 359 354 342 332 326 323 325 317 316 320 321 310 279 269 291 263 261 63 112 142 170 178 183 178 177 166
349 15 21 15 19 13 24 16 17 19 21 21 13 8 4 1 3 353 350 348 340 324 324 318 312 322 323 317 313 300 270 209 59 59 91 104 128 121 118 107 107 97 61
4 9 16 10 18 12 29 33 32 27 22 15 14 3 354 352 357 355 349 356 346 342 323 322 327 331 333 332 330 325 119 102 103 107 119 74 89 112 109 90 85 87 73
359 13 17 41 34 21 22 35 36 28 19 19 13 4 349 352 356 353 347 349 346 349 342 327 330 342 357 4 356 29 36 36 36 78 78 88 100 104 108 116 108 105 96
9 18 30 22 24 16 17 27 47 42 32 21 12 360 358 356 352 351 358 360 353 351 359 353 353 351 354 359 5 20 27 39 63 93 111 103 96 100 87 96 111 78 100
64 63 65 63 48 26 28 352 22 44 43 35 36 28 14 12 7 6 11 17 12 9 13 6 359 357 360 355 357 356 17 31 30 63 96 108 108 97 95 86 81 95 105
71 81 75 65 53 46 44 38 13 338 14 29 26 28 25 23 19 19 22 29 28 27 29 9 359 352 348 351 354 360 357 18 62 66 82 92 98 97 102 92 94 104 102
69 29 74 59 37 36 20 32 9 13 4 348 351 17 13 15 21 25 23 31 23 22 13 1 353 347 346 351 357 1 5 16 46 69 87 102 107 114 109 105 103 108 107
109 343 97 80 66 75 67 73 76 36 358 298 315 355 1 4 20 27 29 45 31 16 4 356 348 348 345 346 356 11 21 26 37 57 63 72 93 105 100 97 99 104 105
134 110 93 100 38 65 37 36 36 25 12 353 350 323 337 354 15 5 7 7 7 3 351 359 349 348 343 352 353 11 32 30 31 42 57 67 68 81 92 101 102 104 95
156 125 98 96 76 75 53 68 84 68 24 345 321 319 30 50 347 350 344 356 3 345 346 350 352 355 1 345 6 12 40 51 43 39 42 54 72 80 76 82 90 95 107
186 143 112 165 130 97 115 114 91 105 47 11 319 336 18 30 9 344 337 346 342 318 316 315 357 11 354 2 2 21 23 39 59 58 60 58 61 68 79 87 95 97 103
132 140 114 5 291 147 72 50 138 166 191 193 304 355 359 1 351 337 330 328 347 345 326 335 9 23 4 9 14 16 43 33 16 62 80 73 69 72 80 90 95 95 99
155 164 168 183 183 182 174 210 234 217 199 210 262 0 344 329 346 324 316 318 358 348 321 342 359 40 20 14 16 26 30 23 34 42 57 88 91 82 78 75 72 89 97
164 159 168 183 188 189 195 220 223 221 225 226 218 201 228 287 324 311 305 326 338 351 348 336 336 17 32 41 40 47 52 52 52 59 69 74 77 78 87 92 96 89 86
169 173 180 174 189 184 185 198 206 208 220 218 229 227 205 213 242 275 285 315 337 346 328 324 335 21 37 12 15 44 71 69 64 63 66 86 98 91 92 98 101 102 113